| time (UTC) | temp F | wind direction | speed knots | gust knots | rain 1hr in | rain 24hr in | rain mn in | humidity % | barometer mb |
| 20260505125003 | 64 | 176 | 4.3 | 10.4 | 0.00 | 0.00 | 0.00 | ||
| 20260505124003 | 64 | 180 | 2.6 | 6.1 | 0.00 | 0.00 | 0.00 | ||
| 20260505123002 | 63 | 182 | 2.6 | 6.1 | 0.00 | 0.00 | 0.00 | ||
| 20260505122002 | 62 | 239 | 0.0 | 0.0 | 0.00 | 0.00 | 0.00 | ||
| 20260505121004 | 61 | 239 | 0.0 | 0.0 | 0.00 | 0.00 | 0.00 | ||
| 20260505120025 | 61 | 239 | 0.0 | 0.0 | 0.00 | 0.00 | 0.00 | ||
| 20260505115003 | 60 | 239 | 0.0 | 0.0 | 0.00 | 0.00 | 0.00 | ||
| 20260505114002 | 60 | 239 | 0.0 | 0.0 | 0.00 | 0.00 | 0.00 | ||
| 20260505113025 | 61 | 255 | 0.9 | 5.2 | 0.00 | 0.00 | 0.00 | ||
| 20260505112003 | 61 | 264 | 0.9 | 7.0 | 0.00 | 0.00 | 0.00 | ||
| 20260505111002 | 61 | 316 | 2.6 | 7.0 | 0.00 | 0.00 | 0.00 | ||
| 20260505102004 | 60 | 225 | 0.9 | 6.1 | 0.00 | 0.00 | 0.00 | ||
| 20260505101003 | 60 | 228 | 0.9 | 6.1 | 0.00 | 0.00 | 0.00 | ||
| 20260505100002 | 60 | 202 | 2.6 | 6.1 | 0.00 | 0.00 | 0.00 | ||
| 20260505095003 | 60 | 201 | 1.7 | 5.2 | 0.00 | 0.00 | 0.00 | ||
| 20260505094003 | 60 | 224 | 0.9 | 7.0 | 0.00 | 0.00 | 0.00 | ||
| 20260505093003 | 60 | 200 | 0.9 | 6.1 | 0.00 | 0.00 | 0.00 | ||
| 20260505092003 | 61 | 163 | 1.7 | 8.7 | 0.00 | 0.00 | 0.00 | ||
| 20260505091002 | 61 | 197 | 0.0 | 6.1 | 0.00 | 0.00 | 0.00 | ||
| 20260505090003 | 61 | 205 | 3.5 | 8.7 | 0.00 | 0.00 | 0.00 | ||
| 20260505085024 | 62 | 155 | 0.0 | 8.7 | 0.00 | 0.00 | 0.00 | ||
| 20260505083003 | 62 | 180 | 1.7 | 7.8 | 0.00 | 0.00 | 0.00 | ||
| 20260505082003 | 63 | 202 | 3.5 | 10.4 | 0.00 | 0.00 | 0.00 | ||
| 20260505081002 | 63 | 188 | 3.5 | 11.3 | 0.00 | 0.00 | 0.00 | ||
| 20260505080003 | 63 | 197 | 2.6 | 8.7 | 0.00 | 0.00 | 0.00 | ||
| 20260505075002 | 63 | 193 | 2.6 | 9.6 | 0.00 | 0.00 | 0.00 | ||
| 20260505074024 | 63 | 214 | 4.3 | 9.6 | 0.00 | 0.00 | 0.00 | ||
| 20260505073003 | 63 | 167 | 1.7 | 8.7 | 0.00 | 0.00 | 0.00 | ||
| 20260505071003 | 63 | 190 | 3.5 | 9.6 | 0.00 | 0.00 | 0.00 | ||
| 20260505070002 | 63 | 165 | 4.3 | 9.6 | 0.00 | 0.00 | 0.00 | ||
| 20260505065003 | 63 | 172 | 3.5 | 10.4 | 0.00 | 0.00 | 0.00 | ||
| 20260505064002 | 63 | 176 | 3.5 | 9.6 | 0.00 | 0.00 | 0.00 | ||
| 20260505063003 | 63 | 180 | 4.3 | 10.4 | 0.00 | 0.00 | 0.00 | ||
| 20260505062023 | 63 | 174 | 6.1 | 10.4 | 0.00 | 0.00 | 0.00 | ||
| 20260505061004 | 63 | 200 | 3.5 | 10.4 | 0.00 | 0.00 | 0.00 | ||
| 20260505060004 | 63 | 166 | 4.3 | 10.4 | 0.00 | 0.00 | 0.00 | ||
| 20260505055045 | 63 | 174 | 4.3 | 10.4 | 0.00 | 0.00 | 0.00 | ||
| 20260505054002 | 63 | 183 | 3.5 | 8.7 | 0.00 | 0.00 | 0.00 | ||
| 20260505053004 | 63 | 170 | 3.5 | 8.7 | 0.00 | 0.00 | 0.00 | ||
| 20260505052003 | 63 | 185 | 2.6 | 8.7 | 0.00 | 0.00 | 0.00 | ||
| 20260505051004 | 63 | 170 | 3.5 | 7.0 | 0.00 | 0.00 | 0.00 | ||
| 20260505041002 | 63 | 208 | 1.7 | 7.0 | 0.00 | 0.00 | 0.00 | ||
| 20260505040005 | 63 | 173 | 0.9 | 6.1 | 0.00 | 0.00 | 0.00 | ||
| 20260505035002 | 63 | 172 | 1.7 | 7.0 | 0.00 | 0.00 | 0.00 | ||
| 20260505034003 | 63 | 198 | 1.7 | 5.2 | 0.00 | 0.00 | 0.00 | ||
| 20260505033003 | 63 | 177 | 3.5 | 7.0 | 0.00 | 0.00 | 0.00 | ||
| 20260505032003 | 63 | 166 | 2.6 | 6.1 | 0.00 | 0.00 | 0.00 | ||
| 20260505031024 | 64 | 149 | 0.9 | 7.0 | 0.00 | 0.00 | 0.00 | ||
| 20260505030004 | 64 | 180 | 0.9 | 6.1 | 0.00 | 0.00 | 0.00 | ||
| 20260505025004 | 64 | 192 | 0.9 | 5.2 | 0.00 | 0.00 | 0.00 | ||
| 20260505024003 | 65 | 173 | 0.9 | 8.7 | 0.00 | 0.00 | 0.00 | ||
| 20260505023003 | 65 | 179 | 2.6 | 7.0 | 0.00 | 0.00 | 0.00 | ||
| 20260505022003 | 65 | 161 | 4.3 | 8.7 | 0.00 | 0.00 | 0.00 | ||
| 20260505021003 | 65 | 162 | 3.5 | 7.8 | 0.00 | 0.00 | 0.00 | ||
| 20260505020003 | 65 | 147 | 3.5 | 6.1 | 0.00 | 0.00 | 0.00 | ||
| 20260505015003 | 65 | 156 | 1.7 | 5.2 | 0.00 | 0.00 | 0.00 | ||
| 20260505014003 | 65 | 166 | 3.5 | 7.0 | 0.00 | 0.00 | 0.00 | ||
| 20260505013003 | 66 | 154 | 0.9 | 6.1 | 0.00 | 0.00 | 0.00 | ||
| 20260505012045 | 66 | 151 | 0.0 | 6.1 | 0.00 | 0.00 | 0.00 | ||
| 20260505011003 | 66 | 186 | 0.0 | 5.2 | 0.00 | 0.00 | 0.00 | ||
| 20260505010002 | 66 | 173 | 1.7 | 6.1 | 0.00 | 0.00 | 0.00 | ||
| 20260505005003 | 67 | 170 | 0.0 | 3.5 | 0.00 | 0.00 | 0.00 | ||
| 20260505004003 | 68 | 198 | 0.0 | 5.2 | 0.00 | 0.00 | 0.00 | ||
| 20260505003002 | 69 | 203 | 0.0 | 7.0 | 0.00 | 0.00 | 0.00 | ||
| 20260505002003 | 70 | 180 | 1.7 | 7.0 | 0.00 | 0.00 | 0.00 | ||
| 20260505001003 | 71 | 144 | 0.0 | 7.0 | 0.00 | 0.00 | 0.00 | ||
| 20260505000045 | 72 | 183 | 1.7 | 7.0 | 0.00 | 0.00 | 0.00 | ||
| 20260504235003 | 73 | 174 | 1.7 | 8.7 | 0.00 | 0.00 | 0.00 | ||
| 20260504234003 | 74 | 203 | 1.7 | 11.3 | 0.00 | 0.00 | 0.00 | ||
| 20260504233002 | 74 | 211 | 3.5 | 10.4 | 0.00 | 0.00 | 0.00 | ||
| 20260504232024 | 75 | 188 | 0.9 | 8.7 | 0.00 | 0.00 | 0.00 | ||
| 20260504231003 | 76 | 198 | 3.5 | 8.7 | 0.00 | 0.00 | 0.00 | ||
| 20260504230003 | 77 | 215 | 3.5 | 11.3 | 0.00 | 0.00 | 0.00 | ||
| 20260504225002 | 79 | 212 | 4.3 | 15.6 | 0.00 | 0.00 | 0.00 | ||
| 20260504224002 | 79 | 238 | 0.9 | 8.7 | 0.00 | 0.00 | 0.00 | ||
| 20260504223003 | 79 | 216 | 7.0 | 13.0 | 0.00 | 0.00 | 0.00 | ||
| 20260504222003 | 82 | 223 | 5.2 | 16.5 | 0.00 | 0.00 | 0.00 | ||
| 20260504221002 | 83 | 232 | 6.1 | 13.9 | 0.00 | 0.00 | 0.00 | ||
| 20260504220004 | 83 | 227 | 3.5 | 12.2 | 0.00 | 0.00 | 0.00 | ||
| 20260504215003 | 83 | 169 | 1.7 | 12.2 | 0.00 | 0.00 | 0.00 | ||
| 20260504214003 | 81 | 235 | 0.9 | 11.3 | 0.00 | 0.00 | 0.00 | ||
| 20260504213003 | 86 | 246 | 5.2 | 12.2 | 0.00 | 0.00 | 0.00 | ||
| 20260504212002 | 85 | 178 | 3.5 | 13.0 | 0.00 | 0.00 | 0.00 | ||
| 20260504211003 | 82 | 253 | 3.5 | 8.7 | 0.00 | 0.00 | 0.00 | ||
| 20260504210004 | 86 | 226 | 5.2 | 11.3 | 0.00 | 0.00 | 0.00 | ||
| 20260504205003 | 86 | 272 | 5.2 | 12.2 | 0.00 | 0.00 | 0.00 | ||
| 20260504204002 | 84 | 178 | 4.3 | 12.2 | 0.00 | 0.00 | 0.00 | ||
| 20260504203003 | 85 | 237 | 3.5 | 10.4 | 0.00 | 0.00 | 0.00 | ||
| 20260504202002 | 85 | 222 | 5.2 | 16.5 | 0.00 | 0.00 | 0.00 | ||
| 20260504201003 | 84 | 242 | 3.5 | 13.9 | 0.00 | 0.00 | 0.00 | ||
| 20260504200003 | 84 | 200 | 4.3 | 12.2 | 0.00 | 0.00 | 0.00 | ||
| 20260504195003 | 84 | 266 | 3.5 | 10.4 | 0.00 | 0.00 | 0.00 | ||
| 20260504194003 | 82 | 228 | 5.2 | 16.5 | 0.00 | 0.00 | 0.00 | ||
| 20260504193002 | 82 | 232 | 4.3 | 12.2 | 0.00 | 0.00 | 0.00 | ||
| 20260504192004 | 81 | 239 | 5.2 | 13.0 | 0.00 | 0.00 | 0.00 | ||
| 20260504191003 | 81 | 263 | 3.5 | 14.8 | 0.00 | 0.00 | 0.00 | ||
| 20260504190025 | 81 | 177 | 3.5 | 14.8 | 0.00 | 0.00 | 0.00 | ||
| 20260504185002 | 79 | 186 | 6.1 | 13.9 | 0.00 | 0.00 | 0.00 | ||
| 20260504184003 | 76 | 239 | 4.3 | 15.6 | 0.00 | 0.00 | 0.00 | ||
| 20260504183003 | 75 | 241 | 6.1 | 13.9 | 0.00 | 0.00 | 0.00 | ||
| 20260504182024 | 75 | 204 | 6.1 | 12.2 | 0.00 | 0.00 | 0.00 | ||
| 20260504181002 | 75 | 232 | 4.3 | 15.6 | 0.00 | 0.00 | 0.00 | ||
| 20260504180003 | 74 | 216 | 7.0 | 13.0 | 0.00 | 0.00 | 0.00 | ||
| 20260504175004 | 73 | 164 | 5.2 | 13.9 | 0.00 | 0.00 | 0.00 | ||
| 20260504174002 | 73 | 212 | 5.2 | 13.0 | 0.00 | 0.00 | 0.00 | ||
| 20260504173003 | 72 | 232 | 3.5 | 12.2 | 0.00 | 0.00 | 0.00 | ||
| 20260504172003 | 72 | 208 | 7.0 | 13.0 | 0.00 | 0.00 | 0.00 | ||
| 20260504171003 | 71 | 185 | 3.5 | 13.9 | 0.00 | 0.00 | 0.00 | ||
| 20260504151004 | 60 | 200 | 3.5 | 14.8 | 0.00 | 0.00 | 0.00 | ||
| 20260504141002 | 55 | 173 | 6.1 | 13.0 | 0.00 | 0.00 | 0.00 |